Naples, FL

7:31 AM EDT on March 30, 2017 (GMT -0400)
Naples Municipal

Weather History for KAPF - October, 2011

Change the Weather History Date:

Saturday, October 1, 2011

  Actual Average Record
Temperature  
Mean Temperature 80 °F 81 °F  
Max Temperature 88 °F 89 °F 95 °F (1988)
Min Temperature 71 °F 73 °F 68 °F (1993)
Degree Days  
Heating Degree Days 0 0  
Month to date heating degree days 0 0  
Since 1 July heating degree days 0 0  
Cooling Degree Days 15 16  
Month to date cooling degree days 15 16  
Year to date cooling degree days 3549 3193  
Growing Degree Days 30 (Base 50)    
Moisture  
Dew Point 68 °F    
Average Humidity 70    
Maximum Humidity 93    
Minimum Humidity 46    
Precipitation  
Precipitation 0.00 in 0.22 in 4.04 in (1979)
Month to date precipitation 0.00 0.22  
Year to date precipitation 28.00 44.43  
Snow  
Snow 0.00 in - - ()
Month to date snowfall 0.0  
Since 1 July snowfall 0.0  
Since 1 September snowfall 0.0  
Snow Depth 0.00 in    
Sea Level Pressure  
Sea Level Pressure 29.85 in    
Wind  
Wind Speed 6 mph (NNW)    
Max Wind Speed 15 mph    
Max Gust Speed 21 mph    
Visibility 10 miles    
Events      
T = Trace of Precipitation, MM = Missing Value Source: NWS Daily Summary

Daily Weather History Graph

Daily Weather History Graph

Search for Another Location

Airport or City:

Trip Planner

Search our weather history database for the weather conditions in past years. The results will help you decide how hot, cold, wet, or windy it might be!

Date:

Astronomy

Oct. 01, 2011 Rise Set
Actual Time 7:19 AM EDT 7:13 PM EDT
Civil Twilight 6:56 AM EDT 7:36 PM EDT
Nautical Twilight 6:29 AM EDT 8:03 PM EDT
Astronomical Twilight 6:02 AM EDT 8:30 PM EDT
Moon 11:51 AM EDT (10/1) 10:42 PM EDT (10/1)
Length of Visible Light 12h 40m
Length of Day
11h 54m
Waxing Crescent, 24% of the Moon is Illuminated
Oct 1
Waxing Crescent
Oct 3
First Quarter
Oct 11
Full
Oct 19
Last Quarter
Oct 26
New

Hourly Weather History & Observations

Time (EDT) Temp. Heat Index Dew Point Humidity Pressure Visibility Wind Dir Wind Speed Gust Speed Precip Events Conditions
12:53 AM 78.1 °F - 71.1 °F 79% 29.82 in 10.0 mi North 3.5 mph - N/A   Clear
1:53 AM 78.1 °F - 70.0 °F 76% 29.81 in 10.0 mi North 4.6 mph - N/A   Clear
2:53 AM 77.0 °F - 70.0 °F 79% 29.81 in 10.0 mi North 3.5 mph - N/A   Clear
3:53 AM 75.9 °F - 69.1 °F 79% 29.80 in 10.0 mi NNE 3.5 mph - N/A   Clear
4:53 AM 73.9 °F - 69.1 °F 85% 29.81 in 10.0 mi NE 3.5 mph - N/A   Clear
5:53 AM 73.4 °F - 69.8 °F 88% 29.82 in 9.0 mi Calm Calm - N/A   Clear
6:53 AM 72.0 °F - 69.1 °F 91% 29.83 in 9.0 mi Calm Calm - N/A   Clear
7:53 AM 72.0 °F - 70.0 °F 93% 29.84 in 8.0 mi Calm Calm - N/A   Clear
8:53 AM 79.0 °F - 70.0 °F 74% 29.86 in 9.0 mi Calm Calm - N/A   Clear
9:53 AM 82.4 °F 86.3 °F 69.8 °F 66% 29.87 in 10.0 mi NNW 8.1 mph - N/A   Clear
10:53 AM 84.0 °F 88.4 °F 70.0 °F 63% 29.88 in 10.0 mi NNE 8.1 mph - N/A   Partly Cloudy
11:53 AM 84.9 °F 88.2 °F 68.0 °F 57% 29.89 in 10.0 mi North 4.6 mph - N/A   Scattered Clouds
12:53 PM 86.0 °F 88.8 °F 66.9 °F 53% 29.88 in 10.0 mi Variable 5.8 mph - N/A   Partly Cloudy
1:53 PM 88.0 °F 91.4 °F 68.0 °F 51% 29.86 in 10.0 mi NW 6.9 mph - N/A   Partly Cloudy
2:53 PM 87.1 °F 88.3 °F 64.0 °F 46% 29.84 in 10.0 mi WNW 13.8 mph - N/A   Clear
3:53 PM 86.0 °F 87.6 °F 64.9 °F 49% 29.83 in 10.0 mi West 11.5 mph - N/A   Clear
4:53 PM 84.9 °F 90.1 °F 71.1 °F 63% 29.84 in 10.0 mi WNW 9.2 mph - N/A   Partly Cloudy
5:53 PM 84.0 °F 88.4 °F 70.0 °F 63% 29.84 in 10.0 mi WNW 11.5 mph - N/A   Clear
6:53 PM 82.0 °F 84.9 °F 68.0 °F 62% 29.84 in 10.0 mi NW 11.5 mph 18.4 mph N/A   Clear
7:53 PM 80.6 °F 82.7 °F 66.2 °F 61% 29.86 in 10.0 mi NW 8.1 mph - N/A   Clear
8:53 PM 78.8 °F - 64.4 °F 61% 29.89 in 10.0 mi NW 6.9 mph - N/A   Clear
9:53 PM 78.1 °F - 63.0 °F 60% 29.91 in 10.0 mi North 5.8 mph - N/A   Clear
10:53 PM 75.0 °F - 64.0 °F 69% 29.92 in 10.0 mi NNW 5.8 mph - N/A   Clear
11:53 PM 73.9 °F - 60.1 °F 62% 29.93 in 10.0 mi North 5.8 mph - N/A   Clear